Inquirer Daily News

Weather

Get conditions and forecasts for any City, State, ZIP code or Country:  
Fayetteville, AR
on Wednesday, December 19, 2012

Wednesday
Previous Day Next Day
Daily Summary
 ActualAverageRecord
Temperature
Mean Temperature °F 36°F  
Max Temperature 64°F 47°F 72°F (1978)
Min Temperature 30°F 26°F 6°F (2000)
Degree Days
Heating Degree Days 18 29  
Month to date heating degree days 335 504  
Since 1 July heating degree days 1148 1333  
Moisture
Dew Point 46°F   
Average Humidity 86    
Maximum Humidity 100    
Minimum Humidity 72    
Precipitation
Precipitation 0.65 in 0.09 in 0.72 in (1952)
Month to date precipitation 1.93 2.06  
Year to date precipitation 29.84 47.33  
Wind
Wind Speed 8 mph   
Max Wind Speed 35 mph   
Max Gust Speed 45 mph   
Visibility 10 miles   
Events Rain , Thunderstorm   

Key: T is trace of precipitation, MM is missing value
Source: NWS Daily Summary
Time(CST)TemperatureDew PointHumidity Pressure Visibility Wind DirectionWind SpeedGust SpeedPrecipitationEvents Conditions
12:53 AM 30.0°F 28.0°F 92% 29.84 in 10.0 miles Calm Calm - N/A   Clear
1:53 AM 30.0°F 28.0°F 92% 29.85 in 10.0 miles Calm Calm - N/A   Clear
2:53 AM 30.9°F 28.9°F 92% 29.82 in 10.0 miles Calm Calm - N/A   Clear
3:53 AM 30.9°F 30.0°F 96% 29.81 in 10.0 miles Calm Calm - N/A   Clear
4:53 AM 32.0°F 30.0°F 92% 29.81 in 10.0 miles Calm Calm - N/A   Clear
5:53 AM 33.1°F 30.0°F 89% 29.80 in 10.0 miles Calm Calm - N/A   Clear
6:53 AM 33.1°F 30.9°F 92% 29.80 in 10.0 miles Calm Calm - N/A   Clear
7:53 AM 33.1°F 30.9°F 92% 29.80 in 10.0 miles Calm Calm - N/A   Clear
8:53 AM 37.9°F 34.0°F 86% 29.79 in 10.0 miles Calm Calm - N/A   Clear
9:53 AM 52.0°F 51.1°F 97% 29.77 in - South 11.5 mph 18.4 mph 0.16 in   Partly Cloudy
10:53 AM 61.0°F 53.1°F 75% 29.75 in 10.0 miles North - - N/A   Mostly Cloudy
11:53 AM 62.1°F 54.0°F 75% 29.72 in 10.0 miles South 10.4 mph - N/A   Mostly Cloudy
12:53 PM 62.1°F 54.0°F 75% 29.68 in 10.0 miles South 17.3 mph 25.3 mph N/A   Scattered Clouds
1:53 PM 62.1°F 55.0°F 78% 29.65 in 10.0 miles South 17.3 mph 21.9 mph N/A   Clear
2:53 PM 61.0°F 55.0°F 81% 29.64 in 10.0 miles South 10.4 mph 18.4 mph N/A   Mostly Cloudy
3:53 PM 61.0°F 55.0°F 81% 29.62 in 10.0 miles SSE 10.4 mph 20.7 mph N/A   Mostly Cloudy
4:53 PM 61.0°F 55.9°F 83% 29.60 in 10.0 miles SSE 12.7 mph 21.9 mph N/A   Scattered Clouds
5:53 PM 61.0°F 55.9°F 83% 29.59 in 10.0 miles South 10.4 mph - N/A   Clear
6:53 PM 62.1°F 57.0°F 84% 29.57 in 10.0 miles South 13.8 mph - N/A   Partly Cloudy
7:53 PM 64.0°F 57.9°F 80% 29.54 in 10.0 miles South 15.0 mph 25.3 mph N/A   Partly Cloudy
8:53 PM 64.0°F 57.9°F 80% 29.50 in 10.0 miles South 19.6 mph 26.5 mph N/A   Clear
9:20 PM 62.6°F 59.0°F 88% 29.51 in 8.0 miles SSW 13.8 mph 29.9 mph 0.01 in Rain , Thunderstorm Light Rain
9:53 PM 61.0°F 60.1°F 97% 29.50 in 4.0 miles SW 10.4 mph 23.0 mph 0.51 in Rain , Thunderstorm Thunderstorms and Rain
10:50 PM 55.4°F 53.6°F 94% 29.48 in 10.0 miles South 10.4 mph - 0.14 in Rain Light Rain
10:53 PM 55.9°F 53.1°F 90% 29.46 in 10.0 miles South 8.1 mph - 0.14 in Rain Light Rain
11:53 PM 57.0°F 48.9°F 74% 29.47 in 10.0 miles WSW 9.2 mph - 0.00 in   Overcast
Astronomy
Sunrise:07:22 AM (CST) Moon Rise:11:44 AM (CST)12/19
Sunset:05:05 PM (CST) Moon Set:No Moon Set/
Moon Phase
Dec. 19 Dec. 20 Dec. 28 Jan. 04 Jan. 11

Copyright © 2014 The Weather Underground, Inc.